{"data":{"norad_id":55833,"intl_designator":"2023-029AP","name":"ONEWEB-0674","alt_names":[],"object_type":"PAYLOAD","status":"ACTIVE","operator":null,"country":"UK","launch_date":"2023-03-09","launch_site_code":"AFETR","launch_vehicle":null,"mission":null,"orbit_class":"UNKNOWN","rcs_meters":null,"size_class":null,"mass_kg":null,"dimensions":null,"purposes":["comms"],"wikipedia_slug":null,"has_3d_model":false,"image_url":null,"decayed_at":null,"tle_current":{"epoch":"2026-05-25T02:48:19.636416Z","epoch_age_seconds":64606,"freshness":"FRESH","line1":"1 55833U 23029AP  26145.11689394 -.00000067  00000+0 -21394-3 0  9995","line2":"2 55833  87.8934 294.3212 0002090  86.8060 273.3309 13.14502782156380","mean_motion":13.14502782,"eccentricity":0.000209,"inclination_deg":87.8934,"raan_deg":294.3212,"arg_perigee_deg":86.806,"mean_anomaly_deg":273.3309,"bstar":-0.00021394,"rev_number":15638,"period_min":109.5471245644,"perigee_km":1204.2053830454,"apogee_km":1207.3754647086,"semimajor_km":7583.927423877,"source":"CELESTRAK","updated_at":"2026-05-25T13:38:22.698713Z"}}}